This is the latest recevied weather packets stored in our database for station/object KG5WBN. If no packets are shown the sender has not sent any weather packets the latest 10 day(s).
| Time | Temp. | Humidity | Pressure | Rain* | Wind** | Luminosity | Snow |
|---|---|---|---|---|---|---|---|
| 1788137959 | 28.33° C | 56% | 1014.2 hPa | 0 mm | - | 0 W/m² | - |
| 1788137490 | 28.33° C | 55% | 1013.9 hPa | 0 mm | - | 0 W/m² | - |
| 1788137185 | 28.33° C | 55% | 1013.9 hPa | 0 mm | - | 0 W/m² | - |
| 1788136876 | 28.33° C | 55% | 1013.9 hPa | 0 mm | - | 0 W/m² | - |
| 1788136572 | 28.33° C | 54% | 1013.9 hPa | 0 mm | - | 0 W/m² | - |
| 1788136267 | 28.33° C | 53% | 1013.9 hPa | 0 mm | - | 1 W/m² | - |
| 1788135965 | 28.33° C | 53% | 1013.9 hPa | 0 mm | - | 1 W/m² | - |
| 1788135661 | 28.89° C | 53% | 1013.9 hPa | 0 mm | - | 5 W/m² | - |
| 1788135356 | 28.89° C | 53% | 1013.9 hPa | 0 mm | - | 5 W/m² | - |
| 1788135052 | 28.89° C | 53% | 1013.9 hPa | 0 mm | - | 11 W/m² | - |
| 1788134749 | 28.89° C | 53% | 1013.9 hPa | 0 mm | - | 13 W/m² | - |
| 1788134448 | 28.89° C | 53% | 1014.2 hPa | 0 mm | - | 20 W/m² | - |
| 1788134147 | 28.89° C | 53% | 1013.9 hPa | 0 mm | - | 28 W/m² | - |
| 1788133842 | 28.89° C | 53% | 1013.9 hPa | 0 mm | - | 31 W/m² | - |
| 1788133537 | 29.44° C | 52% | 1014.6 hPa | 0 mm | - | 47 W/m² | - |
| 1788133232 | 29.44° C | 52% | 1014.6 hPa | 0 mm | - | 47 W/m² | - |
| 1788132927 | 29.44° C | 52% | 1013.5 hPa | 0 mm | - | 51 W/m² | - |
| 1788132577 | 29.44° C | 52% | 1013.9 hPa | 0 mm | - | 64 W/m² | - |
| 1788132273 | 29.44° C | 52% | 1013.9 hPa | 0 mm | - | 64 W/m² | - |
| 1788131969 | 30° C | 52% | 1013.9 hPa | 0 mm | - | 72 W/m² | - |
| 1788131664 | 30° C | 52% | 1013.9 hPa | 0 mm | - | 72 W/m² | - |
| 1788131363 | 30° C | 52% | 1013.9 hPa | 0 mm | - | 81 W/m² | - |
| 1788131059 | 30° C | 52% | 1013.9 hPa | 0 mm | - | 81 W/m² | - |
| 1788130757 | 30° C | 52% | 1013.9 hPa | 0 mm | - | 82 W/m² | - |
| 1788130295 | 30° C | 52% | 1013.9 hPa | 0 mm | - | 87 W/m² | - |
* Rain latest hour (hover to see other rain measurements)
** Current wind speed in m/s (hover to see current wind gust speed)